This is the latest recevied weather packets stored in our database for station/object KB9MLJ. If no packets are shown the sender has not sent any weather packets the latest 10 day(s).
| Time | Temp. | Humidity | Pressure | Rain* | Wind** | Luminosity | Snow |
|---|---|---|---|---|---|---|---|
| 1777342634 | 15° C | 99% | 1004 hPa | 0 mm | - | 0 W/m² | - |
| 1777342330 | 15° C | 99% | 1003.7 hPa | 0 mm | - | 0 W/m² | - |
| 1777342028 | 15° C | 99% | 1004 hPa | 0 mm | - | 0 W/m² | - |
| 1777341724 | 15.56° C | 99% | 1003.7 hPa | 0 mm | - | 0 W/m² | - |
| 1777341421 | 15.56° C | 99% | 1003.3 hPa | 0.76 mm | - | 0 W/m² | - |
| 1777341117 | 15.56° C | 99% | 1003 hPa | 0.76 mm | - | 0 W/m² | - |
| 1777340814 | 15.56° C | 99% | 1003 hPa | 0.76 mm | - | 0 W/m² | - |
| 1777340513 | 15.56° C | 99% | 1002.3 hPa | 0.76 mm | - | 0 W/m² | - |
| 1777340209 | 15.56° C | 99% | 1001.6 hPa | 0.76 mm | - | 0 W/m² | - |
| 1777339906 | 15.56° C | 99% | 1001.6 hPa | 0.76 mm | - | 0 W/m² | - |
| 1777339604 | 15.56° C | 99% | 1001.3 hPa | 0.76 mm | - | 0 W/m² | - |
| 1777339300 | 15.56° C | 99% | 1001 hPa | 0.76 mm | - | 0 W/m² | - |
| 1777338999 | 16.11° C | 98% | 1002.6 hPa | 0.51 mm | - | 0 W/m² | - |
| 1777338695 | 16.11° C | 98% | 1003.7 hPa | 0.51 mm | - | 0 W/m² | - |
| 1777338393 | 16.11° C | 98% | 1004.3 hPa | 0.25 mm | - | 0 W/m² | - |
| 1777338089 | 16.11° C | 98% | 1005.4 hPa | 0 mm | - | 0 W/m² | - |
| 1777337786 | 16.67° C | 97% | 1006.5 hPa | 12.95 mm | - | 0 W/m² | - |
| 1777337484 | 16.67° C | 97% | 1006.8 hPa | 12.45 mm | - | 0 W/m² | - |
| 1777337180 | 16.67° C | 96% | 1006.5 hPa | 11.68 mm | - | 0 W/m² | - |
| 1777336877 | 16.67° C | 95% | 1006 hPa | 11.18 mm | - | 0 W/m² | - |
| 1777336577 | 16.67° C | 94% | 1005.7 hPa | 9.14 mm | - | 0 W/m² | - |
| 1777336274 | 16.67° C | 94% | 1005.4 hPa | 7.11 mm | - | 0 W/m² | - |
| 1777335971 | 17.22° C | 92% | 1005.4 hPa | 3.3 mm | - | 0 W/m² | - |
| 1777335668 | 17.22° C | 91% | 1005.4 hPa | 1.27 mm | - | 0 W/m² | - |
| 1777335365 | 17.78° C | 90% | 1005.4 hPa | 0.25 mm | - | 0 W/m² | - |
* Rain latest hour (hover to see other rain measurements)
** Current wind speed in m/s (hover to see current wind gust speed)